Camdenton, MO

8:37 AM CDT on June 28, 2017 (GMT -0500)
Camdenton

Weather History for KH21 - February, 2012

Change the Weather History Date:

Friday, February 24, 2012

  Actual Average (KAIZ) Record (KAIZ)
Temperature  
Mean Temperature 40 °F -  
Max Temperature 44 °F 46 °F 73 °F (2002)
Min Temperature 35 °F 28 °F 10 °F (2003)
Degree Days  
Heating Degree Days 26    
Moisture  
Dew Point 22 °F    
Average Humidity 55    
Maximum Humidity 75    
Minimum Humidity 34    
Precipitation  
Precipitation 0.00 in - - ()
Sea Level Pressure  
Sea Level Pressure 30.00 in    
Wind  
Wind Speed 15 mph ()    
Max Wind Speed 28 mph    
Max Gust Speed 36 mph    
Visibility 10.0 miles    
Events      
Averages and records for this station are not official NWS values.
T = Trace of Precipitation, MM = Missing Value Source: Averaged Metar Reports

Daily Weather History Graph

Daily Weather History Graph

Search for Another Location

Airport or City:

Trip Planner

Search our weather history database for the weather conditions in past years. The results will help you decide how hot, cold, wet, or windy it might be!

Date:

Astronomy

Feb. 24, 2012 Rise Set
Actual Time 6:49 AM CST 5:58 PM CST
Civil Twilight 6:23 AM CST 6:25 PM CST
Nautical Twilight 5:52 AM CST 6:55 PM CST
Astronomical Twilight 5:22 AM CST 7:26 PM CST
Moon 7:48 AM CST (2/24) 8:58 PM CST (2/24)
Length of Visible Light 12h 01m
Length of Day
11h 08m
Waxing Crescent, 8% of the Moon is Illuminated
Feb 24
Waxing Crescent
Feb 29
First Quarter
Mar 8
Full
Mar 14
Last Quarter
Mar 22
New

Hourly Weather History & Observations

Time (CST) Temp. Windchill Dew Point Humidity Pressure Visibility Wind Dir Wind Speed Gust Speed Precip Events Conditions
12:15 AM 39.2 °F 30.2 °F 28.4 °F 65% 29.69 in 10.0 mi West 17.3 mph 31.1 mph N/A   Clear
12:35 AM 37.4 °F 26.6 °F 28.4 °F 70% 29.70 in 10.0 mi West 21.9 mph 32.2 mph N/A   Scattered Clouds
12:55 AM 37.4 °F 26.1 °F 28.4 °F 70% 29.72 in 10.0 mi West 24.2 mph 31.1 mph N/A   Scattered Clouds
1:15 AM 37.4 °F 27.8 °F 28.4 °F 70% 29.74 in 10.0 mi West 17.3 mph 25.3 mph N/A   Mostly Cloudy
1:35 AM 37.4 °F 26.1 °F 28.4 °F 70% 29.75 in 10.0 mi West 24.2 mph 35.7 mph N/A   Overcast
1:55 AM 37.4 °F 28.5 °F 28.4 °F 70% 29.75 in 10.0 mi West 15.0 mph 21.9 mph N/A   Overcast
2:15 AM 37.4 °F 28.9 °F 28.4 °F 70% 29.75 in 10.0 mi West 13.8 mph 20.7 mph N/A   Overcast
2:35 AM 37.4 °F 27.2 °F 28.4 °F 70% 29.76 in 10.0 mi West 19.6 mph 24.2 mph N/A   Overcast
2:55 AM 37.4 °F 27.5 °F 28.4 °F 70% 29.76 in 10.0 mi West 18.4 mph 31.1 mph N/A   Overcast
3:15 AM 37.4 °F 25.4 °F 28.4 °F 70% 29.77 in 10.0 mi West 27.6 mph 31.1 mph N/A   Overcast
3:35 AM 37.4 °F 27.2 °F 28.4 °F 70% 29.78 in 10.0 mi West 19.6 mph 27.6 mph N/A   Overcast
3:55 AM 35.6 °F 24.8 °F 28.4 °F 75% 29.79 in 10.0 mi WNW 19.6 mph 28.8 mph N/A   Overcast
4:15 AM 35.6 °F 26.2 °F 28.4 °F 75% 29.80 in 10.0 mi West 15.0 mph 26.5 mph N/A   Overcast
4:35 AM 35.6 °F 24.2 °F 28.4 °F 75% 29.82 in 10.0 mi West 21.9 mph 31.1 mph N/A   Overcast
4:55 AM 35.6 °F 25.9 °F 28.4 °F 75% 29.84 in 10.0 mi West 16.1 mph 31.1 mph N/A   Overcast
5:15 AM 35.6 °F 23.7 °F 28.4 °F 75% 29.85 in 10.0 mi West 24.2 mph 31.1 mph N/A   Overcast
5:55 AM 35.6 °F 25.5 °F 28.4 °F 75% 29.88 in 10.0 mi WNW 17.3 mph 26.5 mph N/A   Overcast
7:55 AM 35.6 °F 25.5 °F 26.6 °F 70% 29.97 in 10.0 mi West 17.3 mph 25.3 mph N/A   Overcast
8:35 AM 35.6 °F 25.9 °F 26.6 °F 70% 30.00 in 10.0 mi West 16.1 mph 27.6 mph N/A   Overcast
9:35 AM 37.4 °F 26.9 °F 24.8 °F 60% 30.04 in 10.0 mi West 20.7 mph 27.6 mph N/A   Overcast
1:55 PM 44.6 °F 35.9 °F 21.2 °F 39% 30.07 in 10.0 mi WNW 23.0 mph 28.8 mph N/A   Overcast
2:15 PM 42.8 °F 34.3 °F 21.2 °F 42% 30.08 in 10.0 mi West 19.6 mph 29.9 mph N/A   Mostly Cloudy
2:55 PM 44.6 °F 36.4 °F 19.4 °F 37% 30.09 in 10.0 mi West 20.7 mph 26.5 mph N/A   Scattered Clouds
3:15 PM 44.6 °F 36.6 °F 19.4 °F 37% 30.10 in 10.0 mi West 19.6 mph 25.3 mph N/A   Scattered Clouds
3:55 PM 44.6 °F 35.7 °F 17.6 °F 34% 30.11 in 10.0 mi West 24.2 mph 28.8 mph N/A   Mostly Cloudy
4:55 PM 44.6 °F 37.4 °F 17.6 °F 34% 30.12 in 10.0 mi WNW 16.1 mph 25.3 mph N/A   Clear
5:15 PM 42.8 °F 36.6 °F 15.8 °F 34% 30.12 in 10.0 mi West 11.5 mph 24.2 mph N/A   Scattered Clouds
5:35 PM 42.8 °F 37.5 °F 15.8 °F 34% 30.12 in 10.0 mi West 9.2 mph - N/A   Clear
5:55 PM 42.8 °F 36.2 °F 15.8 °F 34% 30.13 in 10.0 mi West 12.7 mph 23.0 mph N/A   Clear
6:15 PM 41.0 °F 34.7 °F 15.8 °F 36% 30.13 in 10.0 mi West 10.4 mph - N/A   Clear
6:35 PM 41.0 °F 35.8 °F 17.6 °F 39% 30.13 in 10.0 mi West 8.1 mph - N/A   Clear
6:55 PM 41.0 °F 37.1 °F 17.6 °F 39% 30.14 in 10.0 mi West 5.8 mph - N/A   Clear
7:15 PM 39.2 °F 35.0 °F 17.6 °F 42% 30.16 in 10.0 mi West 5.8 mph - N/A   Clear
7:35 PM 37.4 °F 32.8 °F 17.6 °F 45% 30.16 in 10.0 mi West 5.8 mph - N/A   Clear
7:55 PM 37.4 °F 33.8 °F 17.6 °F 45% 30.16 in 10.0 mi WSW 4.6 mph - N/A   Clear
8:15 PM 37.4 °F 32.8 °F 17.6 °F 45% 30.17 in 10.0 mi WSW 5.8 mph - N/A   Clear
8:35 PM 37.4 °F 33.8 °F 17.6 °F 45% 30.17 in 10.0 mi SW 4.6 mph - N/A   Clear
8:55 PM 35.6 °F 31.7 °F 17.6 °F 48% 30.17 in 10.0 mi SSW 4.6 mph - N/A   Clear
9:15 PM 35.6 °F 30.7 °F 17.6 °F 48% 30.17 in 10.0 mi SSW 5.8 mph - N/A   Clear
9:35 PM 35.6 °F 30.7 °F 17.6 °F 48% 30.17 in 10.0 mi SSW 5.8 mph - N/A   Clear
9:55 PM 35.6 °F 30.7 °F 17.6 °F 48% 30.16 in 10.0 mi SSW 5.8 mph - N/A   Clear
10:15 PM 35.6 °F - 17.6 °F 48% 30.17 in 10.0 mi Calm Calm - N/A   Scattered Clouds
10:35 PM 35.6 °F 29.2 °F 19.4 °F 52% 30.19 in 10.0 mi WNW 8.1 mph - N/A   Overcast
10:55 PM 35.6 °F 31.7 °F 19.4 °F 52% 30.19 in 10.0 mi West 4.6 mph - N/A   Overcast
11:15 PM 35.6 °F 30.7 °F 19.4 °F 52% 30.18 in 10.0 mi SW 5.8 mph - N/A   Overcast
11:35 PM 35.6 °F 29.2 °F 21.2 °F 56% 30.20 in 10.0 mi WNW 8.1 mph - N/A   Overcast
11:55 PM 37.4 °F 30.8 °F 19.4 °F 48% 30.20 in 10.0 mi WNW 9.2 mph - N/A   Overcast